SCP
2 1 1 0 0 0 0 0 0 0 1 1 1 1 1 1 0 0 0 1 1 1 1 1 1 1 1 1 1 1 1 1 1 1 0 0 0 0 0 0 0 0 0 0 0 0 0 0 0
1 1 1 0 0 0 0 0 0 0 1 1 1 1 1 1 1 1 1 1 1 1 1 1 1 1 1 1 1 1 1 1 1 1 0 0 0 0 0 0 0 0 0 0 0 0 0 0 0
0 0 0 0 0 0 0 0 0 1 1 1 1 1 1 1 1 1 1 1 1 1 1 1 1 1 1 1 1 1 1 1 1 0 0 0 0 0 0 0 0 0 0 0 0 0 0 0 0
0 0 0 0 0 0 0 0 1 1 1 1 1 1 1 1 1 1 1 1 1 1 1 1 1 1 1 1 1 1 1 1 1 0 0 0 0 0 0 0 0 0 0 0 0 0 0 0 0
0 0 0 0 0 0 0 1 1 1 1 1 1 1 1 1 1 2 2 2 2 2 1 1 2 2 2 2 1 1 1 1 1 0 0 0 0 0 0 0 0 0 0 0 0 0 0 0 0
0 0 0 0 0 0 0 1 1 1 1 1 2 2 2 2 2 2 2 2 2 2 2 2 2 2 2 2 2 1 1 1 1 1 0 0 0 0 0 0 0 0 0 0 0 0 0 0 0
0 0 0 0 0 0 0 1 1 1 2 2 2 2 3 3 3 3 3 3 3 2 2 2 2 2 2 2 2 2 1 1 1 1 1 0 0 0 0 0 0 0 0 0 0 0 0 0 0
0 0 0 0 0 0 0 1 1 1 2 2 2 3 3 3 3 4 4 4 3 3 2 2 2 3 3 2 2 2 1 1 1 1 1 1 0 0 0 0 0 0 0 0 0 0 0 0 0
0 0 0 0 0 0 0 1 1 1 2 2 3 3 4 4 4 4 5 4 3 3 3 3 3 3 3 2 2 2 1 1 1 1 1 1 1 0 0 0 0 0 0 0 0 0 0 0 0
0 0 0 0 0 0 0 1 1 2 2 2 3 3 4 4 3 4 4 3 3 3 3 3 3 3 3 2 2 2 1 1 1 1 1 1 1 0 0 0 0 0 0 0 0 0 0 0 0
0 0 0 0 0 0 0 1 1 1 2 2 3 3 4 4 3 3 3 3 3 3 4 4 4 3 3 2 2 2 1 1 1 1 1 1 1 1 0 0 0 0 0 0 0 0 0 0 0
0 0 0 0 0 0 0 1 1 1 2 2 3 3 4 4 3 3 3 3 3 3 4 4 4 3 3 2 2 2 2 2 1 1 1 1 1 1 0 0 0 0 0 0 0 0 0 0 0
0 0 0 0 0 0 1 1 1 1 2 3 3 3 4 4 3 3 3 3 3 3 4 4 4 3 3 2 2 2 3 3 2 1 1 0 0 0 0 0 0 0 0 0 0 0 0 0 0
0 0 0 0 0 0 1 1 1 2 3 3 3 3 4 4 3 3 3 3 3 3 3 4 4 3 3 2 2 3 3 3 2 1 1 0 0 0 0 0 0 0 0 0 0 0 0 0 0
0 0 0 0 0 0 1 1 1 2 2 2 2 2 3 3 3 3 2 2 3 3 3 3 3 3 3 3 3 4 4 3 2 1 1 0 0 0 0 0 0 0 0 0 0 0 0 0 0
0 0 0 0 0 0 1 1 1 2 2 1 2 2 2 2 2 2 2 2 2 2 2 2 2 3 3 4 4 4 3 2 1 1 1 0 0 0 0 0 0 0 0 0 0 0 0 0 0
0 0 0 0 0 0 0 1 1 2 1 1 2 2 2 2 2 2 2 2 2 2 2 2 2 3 3 4 4 3 2 1 1 1 0 0 0 0 0 0 0 0 0 0 0 0 0 0 0
0 0 0 0 0 0 0 1 1 2 1 2 2 2 2 2 2 2 3 3 3 2 2 2 2 2 4 5 4 2 2 2 1 1 0 0 0 1 0 0 0 0 0 0 0 0 0 0 0
0 0 0 0 0 0 0 1 1 1 1 1 2 2 2 2 2 3 4 4 3 2 2 1 1 2 4 4 4 2 1 1 1 1 0 0 1 1 0 0 0 0 0 0 0 0 0 0 0
0 0 0 0 0 0 0 1 1 1 1 1 1 2 2 2 3 4 4 4 3 2 2 1 1 2 3 4 3 1 1 1 1 1 0 1 1 1 0 0 0 0 0 0 0 0 0 0 0
0 0 0 0 0 0 0 0 0 1 1 1 1 2 2 3 3 4 4 3 2 2 1 1 1 2 2 3 2 1 1 1 1 1 0 1 1 1 1 0 0 0 0 0 0 0 0 0 0
0 0 0 0 0 0 0 0 0 1 1 1 1 2 2 3 3 3 3 2 2 2 1 1 1 2 2 2 1 1 1 1 1 0 0 1 1 1 0 0 0 0 0 0 0 0 0 0 0
0 0 0 0 0 0 0 0 0 0 1 1 1 2 3 3 3 3 2 2 2 2 2 2 2 2 2 2 2 1 1 1 1 1 0 0 0 0 0 0 0 0 0 0 0 0 0 0 0
0 0 0 0 0 0 0 0 0 0 0 1 1 2 3 3 3 2 2 3 3 2 2 2 2 2 2 2 2 2 2 2 1 1 0 0 0 0 0 0 0 0 0 0 0 0 0 0 0
0 0 0 0 0 0 0 0 0 0 0 1 1 2 2 2 2 2 2 2 2 3 3 2 2 2 2 2 2 2 2 2 2 1 1 0 0 0 0 0 0 0 0 0 0 0 0 0 0
0 0 0 0 0 0 0 0 0 0 1 1 1 2 2 2 2 1 1 1 2 2 2 2 2 2 2 2 2 2 2 2 2 1 1 0 0 0 0 0 0 0 0 0 0 0 0 0 0
0 0 0 0 0 0 0 0 0 1 1 1 2 2 2 2 2 1 1 1 1 1 1 1 2 2 2 2 2 2 2 2 2 1 1 0 0 0 0 0 0 0 0 0 0 0 0 0 0
0 0 0 0 0 0 0 0 0 1 1 1 2 2 2 2 2 1 1 1 1 1 1 1 1 1 2 2 2 2 2 2 2 1 0 0 0 0 0 0 0 0 0 0 0 0 0 0 0
0 0 0 0 0 0 0 0 0 1 1 1 1 1 1 1 1 1 1 1 1 1 1 1 1 1 1 1 1 1 1 1 1 1 0 0 0 0 0 0 0 0 0 0 0 0 0 0 0
0 0 0 0 0 0 0 0 0 1 1 1 1 1 1 1 1 1 1 1 1 1 1 1 1 1 1 1 1 1 1 1 1 1 0 0 0 0 0 0 0 0 0 0 0 0 0 0 0
Wind_Speed
3 2 2 1 5 6 3 3 2 2 3 2 4 5 6 3 2 3 3 9 13 12 10 14 16 16 16 16 16 16 16 16 16 15 15 14 14 14 13 13 12 12 12 13 13 13 13 13 13
2 3 1 3 6 4 3 3 2 2 3 3 4 5 5 4 4 7 6 8 14 12 9 11 17 16 16 16 16 15 15 15 15 14 14 14 13 13 13 13 12 12 13 13 13 13 13 13 13
2 2 3 5 4 3 1 1 0 1 2 2 4 5 4 3 5 5 6 12 12 10 8 11 17 16 16 16 15 15 15 14 14 14 13 13 12 12 12 12 12 13 13 13 13 13 13 13 13
1 3 5 6 2 2 3 3 2 1 2 4 4 5 4 3 4 6 13 14 13 9 8 11 17 16 16 15 15 14 14 14 13 13 12 12 12 12 12 12 12 13 13 13 13 13 12 12 12
3 4 6 4 2 3 2 3 2 1 1 3 4 4 3 4 8 13 14 14 12 9 7 10 17 16 16 15 15 14 13 13 13 12 12 11 11 11 11 12 12 12 12 12 12 12 12 11 11
4 5 6 2 4 3 2 2 2 2 2 3 4 4 2 3 10 12 12 11 10 10 8 9 16 16 15 15 14 14 13 13 12 12 11 11 11 11 11 11 11 11 12 11 11 11 11 10 10
4 4 3 0 2 3 1 1 2 2 2 2 5 5 3 4 7 10 10 9 8 8 8 6 8 10 14 14 14 13 13 12 12 12 11 11 11 11 11 11 11 11 11 11 11 11 10 10 10
4 5 3 0 1 3 1 1 1 3 2 3 4 7 6 7 10 11 10 9 8 7 6 6 6 6 6 7 13 13 13 12 12 11 11 10 10 10 10 9 10 10 10 10 10 10 10 9 9
3 5 0 3 3 3 1 1 1 2 4 2 2 3 7 15 14 13 11 8 8 8 5 5 6 5 5 5 9 10 11 11 10 9 11 8 4 4 5 7 9 10 10 9 9 9 9 9 8
4 3 4 4 4 3 2 2 3 3 2 1 3 6 15 16 15 15 14 13 12 10 8 5 6 6 5 5 4 3 3 4 4 3 5 4 4 3 4 6 8 9 9 8 8 8 8 6 4
3 4 4 4 4 3 2 2 3 5 4 7 8 14 18 16 14 13 13 12 12 10 9 7 6 6 5 3 3 2 2 3 3 4 4 4 3 3 3 2 3 4 5 3 4 5 3 4 3
2 4 4 4 2 1 3 3 3 5 6 5 11 18 19 17 15 14 13 11 9 10 9 7 7 6 5 4 4 3 3 2 2 3 4 3 2 2 2 2 2 2 2 3 3 2 3 3 3
1 4 4 4 4 3 2 2 3 3 2 8 13 15 15 15 12 10 9 9 9 9 9 8 8 7 6 5 4 4 3 3 3 3 3 4 3 3 2 2 2 2 2 2 2 2 2 3 3
2 3 5 5 3 0 3 1 2 2 6 11 13 13 13 13 12 10 9 10 10 10 9 8 8 7 6 5 4 4 3 3 3 3 4 4 3 3 3 2 2 2 2 2 2 2 2 2 2
2 4 6 4 2 1 3 1 3 4 8 10 11 11 10 9 9 11 11 11 11 10 9 8 8 7 7 6 5 4 3 3 2 2 3 4 4 4 3 3 2 2 2 2 2 2 2 2 2
3 4 4 6 3 2 2 4 3 6 9 9 9 9 8 8 9 9 8 8 8 9 9 9 9 8 7 6 5 4 4 4 3 2 3 4 4 4 4 3 2 2 2 2 2 2 2 1 1
5 2 2 6 3 2 1 5 3 4 7 7 7 7 7 6 6 6 8 8 9 10 10 10 9 9 7 6 4 4 4 4 3 3 3 4 5 5 4 3 3 3 2 2 2 2 2 2 2
1 1 3 5 4 3 1 4 2 3 5 5 5 5 5 6 6 6 7 7 8 8 9 10 9 8 7 5 3 3 3 3 3 3 4 5 4 5 4 3 3 4 3 2 2 2 2 1 2
2 1 5 6 4 1 2 3 3 3 3 4 4 5 5 5 3 4 6 7 8 8 9 9 9 8 7 5 5 4 4 4 3 4 5 5 5 5 4 3 4 4 3 4 4 3 3 1 2
1 2 4 5 3 1 2 3 2 1 4 5 6 7 6 4 4 5 5 6 8 9 9 9 8 8 8 6 4 4 4 3 3 3 4 5 5 5 5 4 4 4 3 4 4 3 3 2 2
2 4 4 3 4 5 3 6 4 2 1 2 3 4 5 6 6 6 6 6 6 7 8 8 8 8 7 6 4 3 2 2 2 2 3 4 5 6 5 5 4 4 4 4 4 4 5 3 2
4 5 5 2 1 3 2 3 6 3 3 3 4 4 6 6 5 5 6 5 6 6 6 6 7 7 7 7 6 7 5 4 4 3 3 4 5 5 6 6 6 5 4 4 4 4 3 4 3
6 1 2 1 2 1 3 1 8 2 4 5 5 5 5 6 6 6 6 6 6 6 6 6 6 6 6 7 7 6 4 3 2 2 3 3 3 4 5 5 5 5 4 4 4 4 4 3 4
3 5 6 6 5 2 2 1 7 4 5 4 3 5 6 7 6 6 5 4 4 5 6 6 6 6 6 7 6 7 6 5 4 4 4 3 2 2 4 5 5 5 4 5 5 4 5 4 4
4 6 5 5 4 4 3 2 9 6 5 5 5 5 6 6 6 7 7 6 4 5 6 6 7 6 6 7 6 6 6 6 6 5 5 4 3 3 4 5 4 4 4 4 4 4 4 4 4
5 9 8 5 4 5 3 5 8 5 4 2 3 4 6 6 6 6 7 7 6 6 6 6 6 6 6 6 6 5 6 5 4 5 5 5 4 4 4 4 5 5 5 5 4 3 4 3 4
7 4 7 8 3 1 5 7 8 2 2 2 3 5 6 6 5 5 5 6 6 6 6 6 6 5 6 6 5 5 5 5 5 5 4 3 3 3 4 5 5 4 4 4 4 3 4 4 4
6 9 6 7 6 2 5 5 5 4 2 2 3 5 5 5 5 5 4 4 5 5 5 5 5 5 5 5 5 4 4 4 4 4 4 4 4 3 4 4 4 4 4 4 4 3 3 4 3
5 5 6 6 6 7 3 8 7 7 6 6 6 6 6 7 6 6 5 4 4 4 4 4 4 4 4 4 4 4 4 4 4 4 4 3 3 3 3 3 3 4 4 4 4 3 3 4 3
5 8 9 7 4 5 4 9 5 5 5 4 5 5 5 5 6 6 5 5 5 5 4 4 4 4 4 4 4 4 4 4 4 3 3 3 3 3 3 3 3 3 3 3 4 4 3 3 3
Wind_Direction
216 175 150 98 56 48 24 338 350 27 33 40 95 102 110 102 144 152 120 135 134 139 144 143 141 137 132 128 125 122 121 121 120 120 121 121 123 124 124 122 120 117 115 113 113 111 110 111 112
173 166 127 62 72 54 342 327 23 55 124 108 83 81 80 71 73 105 125 140 137 139 140 144 144 140 136 132 129 127 124 123 122 122 122 122 123 125 125 122 121 119 117 115 114 113 112 113 113
204 164 88 67 78 134 246 285 98 60 94 79 74 62 76 103 121 131 144 140 133 136 138 150 146 143 140 136 133 130 128 126 125 124 124 124 125 125 124 122 122 119 118 116 115 114 114 114 114
106 53 55 65 61 225 209 219 172 143 51 53 89 72 65 73 135 138 138 139 135 135 140 152 148 146 144 140 137 135 133 131 129 128 127 126 126 126 124 123 122 120 119 118 117 116 117 116 117
64 69 56 41 330 286 247 226 173 147 96 73 91 90 53 26 105 128 138 141 140 137 142 153 151 151 149 146 142 140 138 135 134 132 130 128 128 127 125 123 121 120 120 120 118 117 118 118 118
55 61 70 24 314 303 262 195 135 106 110 106 102 100 61 97 123 136 139 140 141 141 142 151 155 154 152 149 146 145 142 139 136 135 132 130 129 128 127 124 123 122 121 120 120 118 117 115 115
91 82 103 172 302 311 281 144 150 144 145 147 124 111 111 134 135 133 130 131 134 136 138 143 151 155 155 152 151 149 146 144 141 138 135 134 132 131 130 128 126 124 122 123 121 118 116 116 118
114 97 78 301 248 278 277 83 139 141 144 111 117 142 171 164 138 126 124 128 131 130 133 136 136 138 144 152 155 152 149 149 145 143 142 141 139 136 132 128 129 128 127 127 124 119 115 114 119
90 72 79 223 215 258 182 89 102 89 103 97 108 152 151 139 137 133 134 138 146 146 139 137 136 136 137 147 160 154 153 153 150 149 147 134 108 108 120 135 137 134 132 129 125 121 116 109 111
86 115 230 219 209 234 229 176 169 119 126 128 86 97 127 142 149 152 157 161 165 165 160 149 146 144 144 155 140 128 129 133 124 115 117 108 103 109 121 143 142 137 132 127 124 117 108 96 90
138 195 244 260 238 225 216 193 155 142 209 207 173 150 149 155 161 165 167 169 171 167 165 159 153 148 147 135 130 118 111 115 115 118 116 112 102 95 91 90 105 102 105 91 97 94 93 102 107
183 247 240 267 259 218 190 169 160 187 225 194 160 154 157 165 171 174 172 171 167 166 167 162 157 153 151 140 139 132 129 129 129 132 130 123 116 110 106 96 97 86 88 94 87 92 98 105 114
229 283 288 265 273 225 170 172 175 219 179 123 135 151 164 171 174 173 167 164 164 170 169 169 166 164 156 146 151 148 146 145 143 142 144 143 140 141 133 121 113 111 107 107 105 105 109 111 115
270 285 296 298 307 227 148 199 150 214 136 134 147 163 173 175 173 166 168 171 172 174 175 172 173 168 159 158 156 152 153 148 148 158 162 159 155 154 148 142 137 135 129 126 125 122 121 116 121
318 335 337 335 352 337 108 322 226 169 141 148 163 171 174 178 173 178 181 178 177 175 169 173 175 166 164 162 161 154 155 148 160 171 173 172 167 165 157 154 161 168 143 131 114 106 101 119 127
32 35 344 308 344 358 106 266 259 151 150 166 174 174 178 183 185 183 178 177 173 166 168 175 179 171 171 166 161 155 158 157 166 180 182 182 181 171 159 162 175 169 145 136 131 125 115 115 134
27 26 307 308 329 23 93 257 264 164 166 177 179 180 182 181 185 186 180 180 174 171 169 174 180 172 170 164 157 153 156 170 176 182 186 188 188 175 166 172 175 162 148 148 156 132 142 151 156
267 328 312 294 302 356 299 263 273 196 183 186 178 178 186 193 199 184 179 176 170 168 168 173 175 168 162 154 141 144 159 179 183 193 195 187 183 176 169 170 169 159 150 155 152 136 128 136 150
165 275 289 278 295 328 288 284 281 210 182 190 187 188 197 199 184 158 166 166 164 164 168 174 172 170 163 163 167 169 180 186 193 201 195 188 184 177 172 172 162 163 167 171 160 139 139 130 124
199 298 293 303 349 29 335 321 305 198 204 201 195 194 190 176 155 151 151 160 168 172 173 174 177 173 173 176 169 169 168 182 189 191 187 186 184 178 181 173 171 169 161 162 163 151 141 145 147
243 218 241 265 346 19 32 338 317 299 249 215 201 185 177 180 175 164 160 165 163 169 177 180 178 176 178 172 153 136 123 123 156 180 187 188 182 180 176 175 172 173 170 177 179 169 159 162 167
259 232 213 225 42 322 35 300 290 294 292 248 221 190 179 175 169 165 165 170 174 173 169 174 174 176 178 173 171 170 177 182 190 183 182 180 180 179 178 175 175 176 175 177 185 176 167 155 167
218 231 150 142 141 19 11 165 285 320 275 257 231 203 181 172 171 169 174 180 175 166 167 170 167 174 176 179 181 180 181 176 158 159 167 177 181 183 180 177 175 176 179 183 182 169 173 171 170
169 70 52 47 67 18 292 189 279 257 242 261 232 196 178 172 169 169 161 153 160 157 162 164 170 177 175 177 179 181 179 168 162 172 181 183 180 189 189 180 180 181 182 187 188 180 179 183 177
112 90 35 6 17 258 285 238 253 262 256 236 224 195 170 165 164 159 153 154 169 172 168 168 173 180 177 178 183 184 181 176 180 184 189 184 186 197 200 187 183 184 189 190 180 175 183 185 182
166 139 154 186 212 274 316 250 260 276 283 235 172 154 149 155 163 167 166 169 176 179 172 172 179 182 176 181 188 186 182 180 183 184 182 189 196 203 199 191 190 191 187 187 176 178 190 185 189
136 158 153 126 144 323 293 290 303 343 24 76 126 138 151 158 162 170 167 164 166 171 175 177 176 176 177 181 181 183 186 183 183 181 180 187 193 198 193 191 191 191 185 182 174 184 192 180 188
136 140 107 116 139 228 294 286 263 269 247 189 168 165 162 157 155 161 162 163 168 169 163 159 166 174 175 174 181 185 184 183 177 172 182 188 190 188 179 182 185 184 181 181 178 183 185 179 191
116 103 104 109 143 151 227 269 233 219 210 199 197 184 175 169 162 161 158 156 155 146 150 158 162 162 166 173 176 174 169 163 160 166 179 180 178 175 178 177 175 174 174 173 173 181 179 184 191
159 160 145 146 187 164 171 264 276 222 217 202 192 182 174 167 158 154 151 148 149 150 153 160 164 170 176 172 163 167 158 152 153 164 170 165 168 164 164 164 165 174 173 170 174 182 180 183 192